CZ-3B DEB, 39333

Orbit data source: Space-Track

CZ-3B DEB, 39333 is space debris in HEO originally from a launch on Sat, 04 Sep 2010 UTC launched from the Xichang Space Center, China (XSC). Debris objects in space refer to the collection of defunct objects orbiting the Earth. Examples of debris include non-operational satellites, rocket bodies, and fragments generated from explosions, collisions, or faulty payload assembly.

Loading next visibility...
CZ-3B DEB details
Identifier
39333, 2010-042E
Orbit
HEO
Last TLE update3 days ago
Origin
Flag of CNCASC (CN / PRC)
ManufacturerCALT
MissionSpacecraft
Bus & MotorUnknown
MassUnknown
Launch date (UTC)
2010-09-04 (14 years ago)
Launch vehicleUnknown
Launch site
Xichang Space Center, China (XSC)
Object type
Payload
Rocket body
Debris
Shape & HBRUnknown
Radar Cross SectionMedium (>0.1 m² and <1 m²)

Expand to show TLE details & history

TLE from 3 days ago
0 CZ-3B DEB
1 39333U 10042E   25021.54551138  .00000379  00000-0  51431-2 0  9995
2 39333  23.2350 166.1423 7465791 241.2710  14.2560  1.90917471 80327
Epoch: 2025-01-21T13:05Z
Definitive object data (Epoch: 2025-01-21T13:05:32.183Z)
Latitude-9.83481°
Longitude-175.30451°
Altitude6,300.269 km
Speed6.954 km/s
True Right ascension09h 28m 55s
True Declination-9° 48' 08"
Sunlit
Object was in daylight at TLE epoch
Visualization TLE readout
Latitude22.96446°
Longitude-71.2724°
Altitude34,983.836 km
Speed2.18 km/s
Apparent Right ascension16h 46m 04s
Apparent Declination19° 15' 41"
Sunlit
Object is in daylight
Visualization observer readout
Local Sidereal Time13:44:24
Azimuth104.365° ESE
Elevation46.048°
Doppler factor1
Orbital elements
Apogee altitude41,568.632 km
Perigee altitude578.727 km
Semi-major axis27,451.816 km
Eccentricity0.7465791
Inclination23.235°
RAAN166.1423°
Arg. of periapsis241.271°
True anomaly93.2817°
Mean anomaly14.256°
Eccentric anomaly43.93643°
Mean motion0.47718 °/min
BSTAR0.0051431
Orbital period754.42 mins
Loading maneuver chart data...
Loading historical data...
Loading historical data...
Loading historical data...
Loading historical data...
Loading historical data...
Loading historical data...
Loading historical data...

CZ-3B DEB Visibility forecast

Observer location: undefined°, undefined

Span
Click to sort rows by Start time (UTC) header in descending order
Start Az.
Max El. time (UTC)
Max El. Az.
Max El.
End time (UTC)
End Az.
174 mins2025-01-24 12:28:33.066Z104.388° ESE2025-01-24 13:31:33.066Z108.333° ESE36.93°2025-01-24 15:22:33.066Z100° ESE
341 mins2025-01-25 06:47:33.066Z92.809° ESE2025-01-25 12:28:33.066Z115.652° SE39.067°2025-01-25 12:28:33.066Z115.652° SE
|